Theta_e
306 307 308 309 309 309 309 308 309 309 309 309 309 309 309 309 309 315 316 310 312 308 316 317 314 311 310 315 316 319 320 321 321 322 323 324 324 325 323 322 323 324 326 328 346
306 308 308 309 309 310 309 309 309 308 308 308 308 309 309 309 314 315 313 308 310 310 318 314 314 315 313 313 315 316 319 320 321 321 322 322 324 324 322 321 321 323 323 323 327
307 309 310 311 310 309 308 309 308 308 309 309 309 309 309 311 318 315 309 309 312 314 317 315 313 315 315 314 313 314 317 317 318 319 319 320 322 323 322 322 322 321 323 323 323
308 310 310 308 310 308 309 309 309 309 310 309 309 309 309 315 319 317 310 311 311 313 314 313 314 315 315 315 314 313 313 315 316 316 318 320 322 323 322 322 323 323 322 323 323
309 309 309 309 307 308 308 308 309 309 309 309 309 309 314 319 315 316 309 313 314 313 313 314 315 316 315 315 314 314 314 313 313 314 315 318 321 321 321 322 323 322 322 323 324
303 307 307 307 307 308 308 308 309 309 309 309 310 309 317 319 312 312 314 313 313 313 314 314 315 316 316 316 316 315 314 314 314 314 314 314 318 319 320 321 322 323 323 322 323
302 303 306 307 308 308 308 309 310 310 310 310 310 313 318 316 313 313 313 313 314 313 314 314 314 315 316 316 316 316 316 315 314 314 314 314 314 315 317 319 321 322 323 323 324
301 302 304 307 308 308 309 309 310 311 310 311 311 316 319 314 313 314 314 315 315 314 314 313 314 315 315 316 315 315 315 315 314 314 314 314 314 315 315 316 318 319 322 323 323
301 301 302 307 307 308 309 309 312 311 311 312 317 318 319 313 314 314 313 314 315 315 315 314 314 315 316 317 317 316 316 315 314 313 313 315 315 315 315 316 316 318 319 321 323
301 301 302 307 308 308 309 310 315 314 315 316 315 317 317 316 314 313 313 313 315 316 317 317 317 318 317 317 319 317 316 315 315 314 314 314 314 315 315 316 317 317 318 320 321
301 302 304 307 309 308 309 314 316 319 316 314 315 315 315 314 313 313 314 314 315 317 318 318 319 319 318 318 318 318 318 317 315 314 315 317 314 315 316 316 317 317 319 320 322
301 302 308 309 309 309 310 315 313 313 315 316 315 315 314 314 314 316 314 315 317 318 317 318 318 318 318 318 317 317 318 318 317 316 316 317 316 316 315 316 317 318 320 321 322
301 305 310 309 309 310 314 313 312 313 317 316 314 314 314 313 315 316 314 315 316 317 317 317 318 317 318 319 319 318 319 318 318 318 317 318 319 318 316 316 315 317 319 320 322
302 309 309 309 312 313 314 312 313 314 323 313 313 315 314 315 317 315 314 315 315 317 317 318 318 317 318 318 317 320 317 318 320 321 320 317 321 319 318 317 316 316 318 320 321
302 308 309 309 313 313 312 312 313 316 324 313 314 314 315 316 316 316 314 316 317 318 317 319 317 318 318 319 318 321 319 320 320 321 320 321 320 319 319 318 317 316 316 318 321
302 307 309 313 314 311 311 313 316 324 316 314 315 316 316 316 316 316 316 316 316 317 317 318 318 318 318 317 317 318 320 320 320 320 328 322 320 319 318 318 317 317 317 317 319
303 306 310 311 310 310 312 316 322 315 314 315 315 316 317 317 316 316 317 317 319 325 321 319 319 318 319 319 317 318 322 324 326 330 326 318 320 320 318 318 317 317 317 317 318
305 307 313 310 308 311 314 319 318 313 314 315 315 316 316 316 316 317 318 319 318 318 324 322 321 318 318 320 319 321 323 323 324 328 322 318 319 321 320 318 317 317 318 318 318
309 314 313 308 309 312 318 317 315 316 314 315 315 316 316 317 316 316 318 319 317 317 325 325 321 318 316 315 318 321 324 320 324 325 324 320 319 320 317 317 317 316 318 319 318
310 314 314 307 310 315 316 313 313 313 313 314 317 316 318 318 318 317 317 317 318 317 319 320 321 316 316 316 317 320 320 324 324 325 324 320 317 316 317 317 317 317 316 319 320
313 315 311 307 313 316 315 313 311 310 312 315 316 317 317 317 317 317 317 316 318 318 316 315 313 316 315 318 320 322 321 320 321 323 323 318 315 317 320 321 318 317 317 321 321
314 316 311 309 314 314 314 312 310 312 312 313 315 316 316 316 318 317 316 316 315 315 314 315 315 320 317 316 316 318 321 320 325 320 319 318 321 317 317 318 320 318 319 322 322
317 315 312 311 315 315 313 312 312 312 312 313 315 315 315 317 318 317 317 315 315 316 311 312 317 322 321 321 317 320 320 321 321 322 324 325 322 316 317 317 318 322 318 323 325
316 318 316 313 313 312 313 314 313 311 311 313 314 315 316 317 315 317 317 315 315 316 316 316 315 318 323 321 321 323 319 320 319 324 322 319 319 318 317 317 319 324 318 322 343
318 318 314 316 315 314 314 313 312 311 311 313 315 315 315 319 317 318 317 317 315 315 315 314 318 319 320 319 321 324 323 319 317 318 321 319 318 319 318 320 323 325 322 344 344
316 316 314 316 313 314 311 312 310 310 311 313 315 314 315 317 318 319 317 317 318 314 314 315 318 320 323 322 322 321 320 320 320 320 321 321 325 320 320 321 325 327 341 340 339
313 312 313 315 317 315 313 310 309 310 311 312 313 315 316 315 316 317 318 317 317 314 313 315 317 319 325 323 325 327 318 315 317 316 313 321 322 321 320 328 331 339 342 338 336
Wind_Speed
19 19 20 20 19 20 20 19 19 17 17 16 15 15 16 19 19 18 11 5 2 2 4 10 7 11 16 15 19 17 17 22 30 30 21 20 25 13 11 19 22 22 13 7 9
20 21 21 21 21 20 21 19 17 15 14 13 13 14 15 16 18 7 2 3 2 3 11 8 10 5 10 14 16 18 17 28 26 23 22 25 23 24 11 21 20 22 21 22 9
22 21 21 21 20 19 17 16 14 14 13 13 14 15 13 12 13 6 7 3 1 7 13 12 12 12 15 12 13 19 22 24 27 23 23 26 25 23 17 22 18 18 20 22 13
23 22 22 20 19 17 15 14 14 14 15 14 14 12 10 9 3 7 5 5 8 9 11 11 10 12 15 13 13 18 21 24 24 25 28 22 22 23 21 19 19 11 18 18 19
24 23 21 20 16 13 14 15 16 15 14 13 11 7 7 9 10 5 6 6 7 8 9 9 9 11 14 13 9 15 16 19 20 21 26 24 21 21 25 22 16 22 15 17 7
27 24 22 19 14 12 13 17 15 13 11 8 5 2 7 8 3 4 5 6 8 9 8 9 7 9 11 14 15 16 17 16 15 18 22 24 27 22 28 23 20 22 21 16 15
28 26 22 16 12 11 14 15 12 11 6 5 4 3 9 4 1 4 7 10 9 9 11 9 8 11 12 12 12 12 18 20 20 21 22 23 27 32 30 27 24 21 24 23 21
28 27 21 13 11 12 14 15 10 8 5 5 3 6 8 4 2 7 7 11 15 13 14 14 12 14 16 15 17 18 19 19 19 24 22 20 27 29 29 29 31 27 22 20 24
30 28 22 13 11 11 13 14 7 6 4 3 4 8 10 7 10 6 14 11 12 10 13 13 12 16 15 17 15 17 17 20 22 21 15 16 25 24 25 27 31 29 26 24 22
32 30 23 12 11 11 12 13 8 2 2 5 9 7 8 5 8 12 16 11 13 12 13 14 14 15 16 14 15 19 18 17 15 16 14 18 22 20 20 25 25 27 29 24 24
35 31 21 11 11 9 12 6 5 8 12 11 13 15 14 7 11 17 8 10 10 13 14 17 14 15 22 19 19 21 24 24 22 20 12 18 21 22 17 21 25 25 20 20 21
36 29 16 8 10 5 9 8 10 9 12 10 6 8 12 9 15 17 4 8 13 16 16 17 20 23 22 22 22 22 25 26 25 21 20 24 23 21 19 22 22 21 18 18 18
37 21 10 9 6 6 7 7 10 9 7 0 4 8 6 6 16 15 1 9 17 20 21 20 22 21 18 21 22 21 24 24 25 24 20 21 26 26 21 25 25 26 23 20 21
35 13 9 9 5 10 5 11 13 5 6 4 1 3 8 12 15 11 13 15 16 20 20 18 21 18 20 24 22 25 21 24 17 20 17 18 21 25 26 27 27 28 26 25 25
30 11 8 7 12 10 12 13 7 5 4 8 5 6 13 16 16 8 5 12 19 22 16 25 25 24 21 21 20 17 14 16 19 20 19 29 14 25 26 28 28 29 29 29 26
26 7 8 5 8 12 14 10 5 7 5 9 9 17 17 12 11 16 12 12 15 20 21 27 26 23 26 24 23 13 15 17 17 14 15 27 21 22 20 24 20 23 30 30 29
21 2 6 6 11 16 13 10 7 5 13 10 21 21 18 17 22 13 14 17 10 6 16 16 23 23 23 20 19 16 10 6 7 10 19 15 17 23 17 28 22 19 24 29 29
14 4 7 7 18 12 12 11 9 13 13 18 16 21 11 21 17 21 19 17 15 12 8 11 12 5 9 14 11 11 12 6 8 14 18 21 23 21 24 24 17 17 22 25 30
11 4 5 14 14 10 9 6 8 13 15 15 20 15 14 20 20 22 21 14 6 5 3 7 8 5 15 18 13 2 10 17 16 20 17 17 5 22 17 15 20 19 19 23 30
17 8 4 16 11 10 6 1 7 7 13 14 18 12 24 22 20 22 14 9 10 6 10 3 12 16 19 9 17 12 2 4 4 6 15 10 20 14 19 19 17 16 20 24 29
8 6 9 17 10 7 5 7 12 14 12 9 16 21 19 15 19 19 8 18 7 9 11 6 6 14 15 10 16 5 4 9 12 11 10 15 12 11 15 17 13 17 23 26 27
10 5 12 19 8 8 8 9 5 12 15 15 12 16 16 18 14 8 10 13 6 7 4 6 4 8 22 23 20 16 19 18 10 13 14 16 19 11 16 17 18 15 23 21 26
9 6 3 16 6 8 12 16 5 11 13 14 13 16 18 18 8 10 19 16 20 6 3 2 4 7 11 2 10 4 11 20 17 15 17 12 7 6 13 20 19 21 27 25 24
6 6 6 6 3 9 13 12 14 10 12 10 17 17 15 19 17 13 24 8 13 15 14 7 5 12 13 19 12 4 13 21 16 11 15 16 19 15 20 16 18 22 27 29 17
5 6 4 7 12 15 15 13 15 17 9 16 16 21 24 19 25 16 21 29 21 4 4 2 7 15 19 23 24 24 19 19 14 17 16 16 17 18 12 13 21 24 26 21 17
6 5 6 12 12 13 11 13 16 16 19 17 17 22 24 18 17 28 26 20 5 4 3 3 5 15 23 19 16 11 5 13 13 14 13 15 25 21 13 14 24 21 26 22 18
9 7 6 11 15 13 12 15 20 19 10 17 21 22 23 24 25 28 21 21 5 3 2 4 4 5 8 11 10 3 5 12 13 10 3 8 19 22 11 22 21 26 28 24 20
Wind_Direction
349 343 339 337 334 331 330 328 326 325 323 322 321 319 320 322 328 299 266 13 331 282 291 273 243 255 242 257 241 240 248 248 248 254 254 262 264 236 216 253 247 246 194 224 101
346 341 337 334 332 330 329 329 326 325 324 321 319 320 323 330 315 273 26 142 150 319 303 323 303 278 249 242 238 232 244 248 261 266 266 268 262 255 224 236 247 241 249 243 158
343 339 335 332 330 328 325 326 326 324 319 316 317 318 322 336 270 80 145 155 306 316 291 296 286 267 274 247 233 244 246 266 277 277 281 278 282 253 236 243 233 238 227 234 190
342 338 336 335 328 328 323 323 320 314 309 306 308 316 323 300 349 106 215 250 288 297 284 277 265 263 259 261 225 250 257 267 278 285 283 288 274 267 268 256 265 246 244 234 206
344 342 340 336 335 333 331 330 328 314 309 301 300 311 311 228 70 141 219 248 279 275 270 287 278 273 265 271 273 266 271 274 270 263 270 274 261 264 270 275 267 274 259 244 224
356 346 340 338 341 340 341 342 338 327 320 317 302 302 266 255 89 176 210 246 266 263 271 283 297 339 297 274 274 278 286 283 279 281 265 255 259 258 259 262 254 260 261 255 245
356 352 344 343 338 339 339 343 340 341 344 332 275 243 266 11 217 248 250 259 277 273 279 256 282 288 299 284 267 279 269 270 257 251 252 261 255 250 255 258 247 235 247 253 255
355 351 342 336 331 331 334 334 329 340 321 330 172 242 281 146 271 261 272 263 250 256 262 277 280 277 274 281 277 266 263 267 263 239 236 230 255 250 246 247 250 249 251 256 233
354 347 337 326 319 320 324 321 324 339 308 115 205 231 276 160 239 293 309 285 303 233 253 264 260 269 268 256 260 244 254 257 268 231 217 245 259 252 253 257 232 238 238 243 242
352 345 336 318 319 305 317 315 271 267 248 245 262 252 244 270 327 306 282 245 268 275 229 224 241 248 241 241 260 277 276 269 254 262 249 242 258 266 251 259 242 230 232 230 235
352 345 338 314 318 311 311 244 255 193 250 300 297 286 281 296 288 284 343 297 246 251 260 257 234 252 260 267 262 273 276 278 280 287 258 262 273 277 270 242 269 226 214 233 232
353 346 341 321 325 320 293 326 12 305 306 278 291 262 267 287 283 309 316 248 240 250 276 270 257 245 252 262 271 269 267 267 273 261 265 264 258 254 257 266 255 252 237 226 228
354 348 352 331 312 253 316 2 332 322 271 215 271 297 317 298 297 316 272 285 279 281 281 274 268 273 260 249 260 268 263 265 272 272 262 276 278 259 246 247 242 251 246 241 236
354 354 350 338 283 334 39 335 320 304 268 69 165 75 291 297 291 332 273 285 286 283 295 286 286 280 274 264 259 256 248 261 295 285 269 260 261 259 250 234 232 232 231 233 238
354 352 350 351 317 355 331 327 329 212 273 11 355 313 270 313 311 289 184 261 278 293 291 274 282 284 269 264 270 291 284 275 258 257 271 260 260 256 250 235 223 222 221 224 224
351 347 357 323 265 348 326 323 246 233 6 332 335 334 322 322 327 308 285 270 284 288 275 270 266 255 253 260 260 252 250 264 273 266 252 248 245 257 247 257 229 227 212 215 216
348 266 354 329 333 325 319 262 266 352 341 349 331 332 305 349 334 329 306 300 273 274 277 296 279 267 229 247 248 239 257 235 237 221 242 249 228 241 244 244 247 230 222 207 210
354 246 310 315 330 317 300 270 286 1 346 333 324 307 312 347 345 331 315 302 288 265 272 287 298 33 19 264 291 271 218 246 265 245 251 242 233 233 244 253 237 252 227 212 206
346 279 280 344 333 310 276 319 353 344 336 325 316 311 327 341 335 345 322 306 354 355 272 312 265 322 303 285 250 355 228 252 258 263 273 269 229 285 262 263 223 238 262 224 199
338 298 19 342 321 284 285 260 328 335 324 319 307 316 322 336 333 342 315 319 343 338 17 309 288 280 288 290 258 200 225 233 201 247 255 252 259 255 242 221 233 225 232 244 203
303 294 23 343 305 288 332 324 324 338 336 326 313 309 322 326 329 321 282 307 4 333 337 277 224 283 289 243 238 178 217 233 267 252 269 275 261 36 340 325 230 217 227 230 196
311 310 10 340 295 358 1 336 330 317 317 312 295 308 319 331 307 291 276 288 23 331 253 252 269 275 276 273 270 226 231 227 245 256 258 260 261 47 291 313 308 222 220 225 195
325 301 75 355 7 352 332 321 275 301 315 309 301 310 320 313 300 247 291 292 322 295 241 202 241 287 296 209 28 276 248 244 239 259 258 260 269 348 306 290 294 298 207 226 200
313 329 349 297 173 346 337 313 322 331 321 303 301 298 299 307 319 287 290 305 283 307 301 240 234 245 274 297 311 237 246 256 231 244 257 258 273 272 269 270 280 284 209 217 137
342 358 23 311 328 327 306 309 310 327 333 312 315 321 322 324 312 308 303 312 318 336 331 243 266 269 265 270 270 270 244 254 233 242 244 261 266 262 274 278 267 262 210 122 131
329 342 328 293 316 302 308 336 327 326 319 314 304 324 318 313 302 315 313 301 290 323 280 230 275 299 288 278 262 225 292 352 312 299 287 265 266 272 282 257 261 253 143 142 119
353 308 278 296 325 317 333 324 315 316 308 308 310 307 317 326 320 301 287 276 234 208 253 272 294 293 277 325 289 122 27 342 294 268 285 244 270 309 300 262 218 150 135 122 119